Location: Antist
(43.1184°N, 0.1270°E)
Time: 09:14:39
(UTC+00:00)

COSMO-SKYMED 1 - Pass Details

Date: 19 January 2020
Orbit: 621 x 623 km, 97.9° (Epoch: 17 February)

Event Time Altitude Azimuth Distance (km) Brightness Sun altitude
Rises 18:15:51 0° 11° (N) 2,912 5.8 -14.7°
Reaches altitude 10° 18:18:03 10° 9° (N) 2,001 4.9 -15.1°
Maximum altitude 18:22:24 76° 285° (WNW) 647 2.7 -15.9°
Drops below altitude 10° 18:26:42 10° 200° (SSW) 1,985 5.6 -16.7°
Sets 18:28:53 0° 199° (SSW) 2,886 6.4 -17.1°
